Tracking 21155 objects as of 15-Aug-2020
HD Live streaming from Space Station
objects crossing your sky now

COSMOS 2251 DEB

Track COSMOS 2251 DEB now!
10-day predictions


NORAD ID: 34424
Int'l Code: 1993-036RR
Perigee: 629.3 km
Apogee: 693.1 km
Inclination: 74.0 °
Period: 97.8 minutes
Semi major axis: 7032 km
RCS: 0.023 m2 (small)
Launch date: June 16, 1993
Source: Commonwealth of Independent States (former USSR) (CIS)
Launch site: PLESETSK MISSILE AND SPACE COMPLEX (PKMTR)

Note: This is SATELLITE DEBRIS
aabbcc
Your satellite tracking list
Your tracking list is empty




NASA's NSSDC Master Catalog

Two Line Element Set (TLE):
1 34424U 93036RR  20228.57462198 +.00000722 +00000-0 +11798-3 0  9994
2 34424 074.0160 255.7334 0045342 160.2929 002.2242 14.72196726612133
Source of the keplerian elements: AFSPC